Location: Colonia Mina de C?rbuni
(46.1667°N, 22.7167°E)
Time: 15:43:21
(UTC+00:00)

Vanguard 1 Rocket - Pass Details

Date: 14 April 2024
Orbit: 650 x 4220 km, 34.3° (Epoch: 22 May)

Event Time Altitude Azimuth Distance (km) Brightness Sun altitude
Rises 21:16:06 0° 260° (W) 4,241 11.0 -31.7°
Reaches altitude 10° 21:18:33 10° 253° (WSW) 3,582 10.4 -31.8°
Enters shadow 21:25:02 41° 212° (SSW) 2,659 9.4 -32.2°
Exits shadow 21:47:15 - 118° (ESE) 7,117 11.6 -33.2°
Sets 21:50:44 0° 116° (ESE) 7,913 11.9 -33.3°
